Location: Muenchen
(48.1800°N, 11.5800°E)
Time: 12:31:55
(UTC+02:00)

Vanguard 2 Rocket - Visible Passes

Search period start: 24 April 2018 00:00
Search period end: 04 May 2018 00:00
Orbit: 553 x 3328 km, 32.9° (Epoch: 23 April)

Date Brightness Start Highest point End Pass type
(mag) Time Alt. Az. Time Alt. Az. Time Alt. Az.
24 Apr 10.1 03:08:39 15° S 03:16:33 22° SE 03:29:17 10° E visible
24 Apr 10.2 05:15:23 10° SW 05:30:48 42° SSE 05:48:42 10° E visible
25 Apr 10.3 02:12:16 12° SSE 02:16:46 14° SE 02:24:25 10° ESE visible
25 Apr 10.0 04:18:03 15° SSW 04:29:53 36° SSE 04:46:49 10° E visible
26 Apr 9.9 03:21:38 19° S 03:29:26 28° SE 03:44:15 10° E visible
27 Apr 10.0 02:25:12 18° SSE 02:29:29 20° SE 02:40:49 10° E visible
27 Apr 9.9 04:30:59 15° SW 04:43:07 41° SSE 05:00:54 10° E visible
28 Apr 10.2 01:28:45 12° SE 01:29:59 12° SE 01:35:15 10° ESE visible
28 Apr 9.7 03:34:31 21° SSW 03:42:30 34° SSE 03:58:38 10° E visible
29 Apr 9.7 02:38:03 23° SSE 02:42:23 26° SE 02:55:47 10° E visible
29 Apr 9.8 04:43:49 13° SW 04:56:31 45° SSE 05:14:47 10° ESE visible
30 Apr 9.9 01:41:34 18° SE 01:42:46 18° SE 01:52:05 10° E visible
30 Apr 9.5 03:47:20 22° SSW 03:55:45 39° SSE 04:12:40 10° E visible
01 May 9.4 02:50:50 26° S 02:55:29 32° SSE 03:10:09 10° E visible
01 May 9.7 04:56:37 10° WSW 05:10:03 47° S 05:28:29 10° ESE visible
02 May 9.5 01:54:21 23° SSE 01:55:43 24° SE 02:07:09 10° E visible
02 May 9.4 04:00:07 20° SW 04:09:12 43° SSE 04:26:30 10° ESE visible
03 May 9.9 00:57:50 15° SE 00:57:50 15° SE 01:03:16 10° ESE visible
03 May 9.2 03:03:37 28° SSW 03:08:49 37° SSE 03:24:10 10° E visible
03 May 9.7 05:10:23 10° WSW 05:23:40 46° S 05:41:59 10° ESE visible
